Location: Aiyekoto
(8.4333°N, 4.3667°E)
Time: 01:15:31
(UTC+00:00)

Daily predictions for brighter satellites

Satellite Brightness Start Highest point End
(mag) Time Altitude Azimuth Time Altitude Azimuth Time Altitude Azimuth
Cosmos 2333 Rocket 4.1 02:37:36 22° N 02:37:36 22° N 02:39:28 10° N
Centaur AC-72 4.0 01:56:02 10° WSW 02:36:21 81° SSE 02:43:16 10° ENE
Cosmos 2219 Rocket 4.0 02:41:34 22° N 02:41:34 22° N 02:43:33 10° N
ATLAS 5 CENTAUR R/B 4.3 02:53:06 11° NNE 02:53:06 11° NNE 02:53:18 10° NNE
USA 234 3.5 02:49:07 10° NE 02:55:29 57° SE 02:55:34 57° SE
ATLAS 2A CENTAUR R/B 3.7 03:03:18 80° W 03:03:42 86° NNW 03:07:50 10° ENE
IDEFIX/ARIANE 42P 4.1 02:59:08 10° N 03:01:27 26° N 03:01:27 26° N
Cosmos 1680 Rocket 4.4 03:07:05 42° N 03:07:05 42° N 03:10:32 10° N
CZ-3A R/B 3.0 03:06:45 40° N 03:06:45 40° N 03:16:32 10° ENE
Meteor 2-3 Rocket 4.5 03:09:40 42° NNW 03:09:40 42° NNW 03:13:22 10° N
Cosmos 1980 3.8 03:09:33 71° ENE 03:09:33 71° ENE 03:14:43 10° NNE
Cosmos 2344 4.0 03:10:17 46° WNW 03:10:17 46° WNW 03:17:09 10° N
H-2A R/B 3.2 03:14:21 41° NNE 03:14:21 41° NNE 03:17:26 10° N
NOSS 3-3 (A) 4.4 03:16:22 41° NNW 03:16:22 41° NNW 03:20:37 10° N
NOSS 3-3 (C) 4.4 03:16:26 42° NNW 03:16:26 42° NNW 03:20:44 10° N
ADEOS 4.4 03:12:39 10° NNE 03:17:38 46° ESE 03:18:58 38° SE
USA 229 DEB 3.8 03:10:12 10° NNW 03:17:51 81° WSW 03:25:34 10° SSE
USA 229 3.8 03:10:18 10° NNW 03:17:57 82° WSW 03:25:41 10° SSE
NOSS 3-1 (C) 4.1 03:10:43 10° NNW 03:19:21 72° WSW 03:28:16 10° SSE
GEOS 3 Rocket 3.6 03:21:16 10° SSE 03:26:18 76° ENE 03:31:26 10° NNW
Cosmos 1151 Rocket 3.6 03:23:12 10° N 03:26:34 52° N 03:26:34 52° N
NOSS 3-1 (A) 4.3 03:18:55 10° NNW 03:27:37 82° ENE 03:36:37 10° SSE
Iridium 4 Rocket 3.5 03:33:04 49° SSE 03:34:13 69° E 03:39:10 10° N
Cosmos 2237 Rocket 2.1 03:34:33 61° W 03:34:46 62° WNW 03:40:21 10° N
Cosmos 1346 Rocket 3.8 03:36:10 38° NNW 03:36:10 38° NNW 03:38:44 10° N
Delta 7925 Rocket 4.1 03:34:06 49° WNW 03:35:34 62° NNW 03:43:03 10° ENE
Cosmos 2239 Rocket 4.4 03:37:41 50° SW 03:39:15 66° W 03:45:30 10° N
Cosmos 1515 Rocket 4.1 03:35:16 10° N 03:39:29 55° E 03:42:12 21° SSE
Aurora 2 Rocket 3.6 03:44:28 25° N 03:44:28 25° N 03:46:42 10° NE
ARIANE 5 R/B 3.9 03:44:54 22° SSE 03:44:54 22° SSE 03:48:44 10° ESE
Delta 168 4.2 03:46:53 22° SE 03:46:53 22° SE 03:49:25 10° E
ARIANE 5 DEB (SYLDA) 3.9 03:44:47 43° SW 03:46:31 59° S 04:08:24 10° E
Ariane H10+ 3.4 03:47:35 46° SW 03:48:58 58° S 03:57:05 10° E
ARIANE 5 R/B 4.0 03:50:08 11° SSE 03:50:08 11° SSE 03:50:26 10° SE
Atlas Centaur 2 2.1 03:51:09 42° SW 03:53:13 76° SSE 03:58:14 10° ENE
PAYLOAD A 4.3 03:49:58 10° N 03:54:33 41° WNW 03:55:00 40° W
SL-16 R/B 2.6 03:52:49 16° S 03:57:12 59° ESE 04:02:45 10° NNE
EPKM 3.2 03:53:17 10° WNW 03:58:28 44° NNE 04:00:26 10° E
Cosmos 1844 Rocket 2.5 03:53:56 10° NNW 03:59:29 79° WSW 04:05:01 10° SSE
STARLINK-1152 4.5 04:02:52 25° S 04:04:44 42° ESE 04:08:29 10° NE
ARIANE 5 R/B 4.5 02:58:43 10° W 04:12:34 56° SSW 04:18:00 10° ESE
OAO 3 Rocket 3.8 04:11:19 27° W 04:13:20 41° NW 04:17:44 10° NE
Cosmos 1633 Rocket 3.7 04:09:40 10° S 04:13:55 55° E 04:18:08 10° NNE
CZ-4B R/B 4.0 04:09:33 10° N 04:14:01 81° WNW 04:17:54 14° SSW
Cosmos 1934 Rocket 4.3 04:13:08 21° SW 04:16:50 42° W 04:22:30 10° NNW
STARLINK-1176 3.8 04:14:44 23° SSW 04:17:10 68° SE 04:21:16 10° NE
Skynet4D Del rocket 3.8 04:11:20 10° WNW 04:17:27 79° NNE 04:22:56 10° ESE
Cosmos 1666 Rocket 3.5 04:15:31 10° S 04:19:56 90° SE 04:24:24 10° N
CZ-2C R/B 3.6 04:17:53 10° NNW 04:21:58 24° WNW 04:23:37 21° WSW
SAR-Lupe-4 4.1 04:23:16 16° SSW 04:25:43 36° W 04:29:01 10° NNW
STARLINK-1146 3.4 04:24:26 21° SW 04:26:59 90° NNE 04:30:52 10° NE
STARLINK-1179 3.5 04:24:17 20° SW 04:27:06 88° NW 04:31:13 10° NE
ALOS 2.2 04:24:50 10° N 04:29:29 78° WNW 04:34:08 10° SSW
Cosmos 2123 Rocket 4.1 04:23:33 10° N 04:29:47 83° E 04:35:59 10° S
STARLINK-1147 3.4 04:27:55 19° SW 04:30:38 81° NW 04:34:31 10° NNE
Spot 2 4.0 04:26:50 10° N 04:30:54 61° WNW 04:35:12 10° SSW
ISO 3.2 04:29:52 18° SW 04:31:52 27° S 04:35:03 10° ESE
STARLINK-1173 3.5 04:29:09 18° SW 04:32:08 76° NW 04:36:14 10° NNE
Meteor 1-31 Rocket 3.5 04:32:20 10° NNW 04:35:50 34° WNW 04:38:52 13° SW
Cosmos 405 3.2 04:32:25 10° N 04:35:56 71° E 04:39:26 10° S
STARLINK-1185 3.5 04:35:14 16° SW 04:38:13 63° NW 04:42:05 10° NNE
Cosmos 2228 Rocket 3.5 04:35:41 10° NNW 04:39:59 43° W 04:44:20 10° SSW
Cosmos 1782 3.6 04:36:36 10° NNW 04:40:04 29° W 04:43:31 10° SSW
CZ-4B R/B 2.1 04:37:41 10° SSW 04:40:16 26° W 04:42:52 10° NW
SL-4 R/B 2.0 04:36:46 10° NW 04:41:09 68° SW 04:45:10 10° SSE
STARLINK-1186 3.7 04:38:55 15° SW 04:42:03 55° NW 04:45:54 10° NNE
ARIANE 5 R/B 2.9 04:43:04 11° SSW 04:43:59 13° S 04:45:12 10° SE
Cosmos 1605 Rocket 4.5 04:39:10 10° SSW 04:44:57 39° W 04:50:48 10° NNW
OAO 2 Rocket 3.5 04:41:13 12° SW 04:45:48 67° SE 04:50:40 10° ENE
STARLINK-1136 4.0 04:43:28 13° SW 04:47:00 47° NW 04:50:58 10° NNE
STARLINK-1196 4.0 04:46:26 12° SW 04:49:52 42° NW 04:53:35 10° NNE
Okean O Rocket 3.8 04:47:41 10° NE 04:51:20 26° E 04:54:58 10° SSE
GPS 2-15 Rocket1 3.2 04:47:58 11° WSW 04:52:32 84° SSE 04:57:23 10° ENE
Centaur D-1A AC-31 3.8 04:40:44 10° WNW 04:52:47 33° N 04:56:52 10° ENE
CZ-3 R/B 4.4 04:32:00 10° WNW 04:54:19 29° NNW 05:01:49 10° NE
Meteor 1-27 Rocket 4.4 04:53:31 10° N 04:58:55 59° E 05:04:22 10° SSE
Delta 2 Rocket 4.4 04:53:36 10° WSW 04:59:01 60° NW 05:04:39 10° NE
H-2A R/B 3.2 04:58:27 10° N 05:02:38 40° WNW 05:06:51 10° SW
ARIANE 5 R/B 4.4 04:46:56 10° W 05:51:08 69° S 05:56:09 10° ESE
